Current Version              Previous Version:    01  02  03  04  05  06  07  08  09  10  11  12  13  14  15  16  17  18  19  20  21  22  23  24  25  26  27  28  29  30  
   31  32  33  34  35  36  37  38  39  40  41  42  43  44  45  46  47  48  49  50  51  52  53  54  55  56  57  58  59  60  

[Printable]
974
ASUS44 KEWX 180410
RWRTX
SOUTH TEXAS REGIONAL WEATHER ROUNDUP
NATIONAL WEATHER SERVICE AUSTIN/SAN ANTONIO TX
1000 PM CST WED DEC 17 2014

NOTE: "FAIR" INDICATED FEW OR NO CLOUDS BELOW 12,000 FEET WITH NO
SIGNIFICANT WEATHER AND/OR OBSTRUCTIONS TO VISIBILITY.

* - THESE STATIONS ARE NOT NWS OR FAA STATIONS...AND ARE NOT SUBJECT
    TO NWS AND FAA QUALITY CONTROL.

TXZ171-172-183>190-180500-
TEXAS HILL COUNTRY AND EDWARDS PLATEAU

CITY           SKY/WX    TMP DP  RH WIND       PRES   REMARKS
JUNCTION       CLOUDY    51  51 100 E3        30.11R FOG
*LLANO         CLOUDY    48  48 100 CALM      30.16S FOG
BURNET         FOG       49  49 100 CALM      30.13R VSB 1
*HORSESHOE BAY FOG       49  49 100 CALM      30.12R VSB 1/2
*KERRVILLE     FOG       51  50  96 CALM      30.11R VSB 1
*FREDERICKSBRG FOG       50  50  99 CALM      30.10S VSB 1/2
*ROCKSPRINGS   FOG       54  54 100 CALM      30.12R VSB<1/4
*BOERNE STAGE  CLOUDY    52  50  93 CALM      30.11R VSB 1/2
*CASTROVILLE   CLOUDY    57  55  95 CALM      30.10R
HONDO          CLOUDY    57  55  93 N3        30.10R
*UVALDE        CLOUDY    55  55  99 CALM      30.10S FOG
DEL RIO        CLOUDY    54  50  86 CALM      30.09S
LAUGHLIN AFB   CLOUDY    53  49  85 CALM      30.10S
CARRIZO SPRGS  FOG       52  52 100 N3        30.09R VSB 1/2
$$

TXZ173-191>194-202-209-217>225-228-180500-
CENTRAL AND SOUTH CENTRAL TEXAS

CITY           SKY/WX    TMP DP  RH WIND       PRES   REMARKS
GEORGETOWN     CLOUDY    48  46  93 CALM      30.11R
AUSTIN/BERGSTM CLOUDY    53  50  89 NE6       30.10S
AUSTIN/MABRY   CLOUDY    53  50  89 N3        30.12R
*AUSTIN/EXEC   CLOUDY    50  48  93 N9        30.12S WCI  46
*LAGO VISTA    DRZL/FOG  50  48  94 N3        30.12R VSB 3/4
SAN MARCOS     CLOUDY    54  50  87 N5        30.09F
NEW BRAUNFELS  CLOUDY    57  53  86 N7        30.08S
RANDOLPH AFB   CLOUDY    56  52  85 N3        30.08F
PT SAN ANTONIO CLOUDY    57  54  89 N6        30.06F
SAN ANTONIO    CLOUDY    58  55  90 NE5       30.08F
STINSON FIELD  CLOUDY    59  53  80 N6        30.06S
*PLEASANTON    CLOUDY    59  55  84 N5        30.08R
*LA GRANGE     CLOUDY    62  59  92 SE7       30.07R
*GIDDINGS      CLOUDY    59  55  85 CALM      30.14R
*GONZALES      CLOUDY    59  58  94 CALM      30.08R
$$

TXZ163>164-176>182-195>201-210>213-226-227-235-180500-
SOUTHEAST TEXAS

CITY           SKY/WX    TMP DP  RH WIND       PRES   REMARKS
COLLEGE STN    CLOUDY    53  50  89 CALM      30.11R
*BRYAN         CLOUDY    50  49  94 CALM      30.13R
*CALDWELL      CLOUDY    50  50 100 N6        30.14R WCI  48
*CROCKETT      CLOUDY    52  48  87 N5        30.19R
*BRENHAM       CLOUDY    61  57  88 SE13      30.10F
HUNTSVILLE     CLOUDY    55  49  80 CALM      30.12R
CONROE         CLOUDY    57  51  80 SE9       30.12S
HOUSTON BUSH   CLOUDY    58  53  84 E8        30.11F
HOUSTON HOBBY  CLOUDY    62  59  90 E6        30.11S
*HOUSTON SW AP MOCLDY    57  56  96 NE3       30.11R
PEARLAND       LGT RAIN  64  60  87 E6        30.11F
HOUSTON HOOKS  CLOUDY    58  54  86 E7        30.11F
ELLINGTON FLD  CLOUDY    63  59  88 NE5       30.12
SUGAR LAND     MOCLDY    61  57  87 E6        30.10R
*HOUSTON EXEC  MOCLDY    57  55  94 E5        30.12R
*CLEVELAND MUN CLOUDY    56  51  81 CALM      30.14S
*WHARTON         N/A     61  59  93 E5        30.09R
*COLUMBUS      CLOUDY    60  58  94 NE3       30.10R
$$

TXZ214>216-236>238-180500-
THE UPPER TEXAS COAST

CITY           SKY/WX    TMP DP  RH WIND       PRES   REMARKS
*ORANGE        CLOUDY    56  49  75 E6        30.17R
PORT ARTHUR    MOCLDY    58  50  75 E8        30.14S
GALVESTON      CLOUDY    65  63  93 E12       30.10F
ANGLETON       CLOUDY    66  63  90 SE9       30.09S
*BAY CITY        N/A     66  65  97 E5        30.08S
PALACIOS       PTCLDY    66  64  93 SE8       30.07S
$$

TXZ229>234-239>247-180500-
TEXAS COASTAL BEND AND RIO GRANDE PLAINS

CITY           SKY/WX    TMP DP  RH WIND       PRES   REMARKS
VICTORIA       MOCLDY    64  62  93 E6        30.07R
*BEEVILLE      CLOUDY    67  66  97 SE3       30.06R
ROCKPORT       CLOUDY    67  64  90 SE5       30.06R
*PORT ARANSAS  MOCLDY    67  65  93 SE3       30.05S
*PORT LAVACA   CLOUDY    65  64  96 SE5       30.07R
*INGLESIDE     CLOUDY    69  65  90 SE5       30.06R
CORPUS CHRISTI CLOUDY    69  65  86 SE6       30.06R
CORPUS NAS     CLOUDY    69  67  93 SE10      30.05R
*ROBSTOWN      NOT AVBL
ALICE          CLOUDY    70  65  84 SE8       30.04R
KINGSVILLE NAS CLOUDY    69  67  93 SE7       30.04R
COTULLA        CLOUDY    57  53  86 N6        30.08R
*FAITH RANCH   CLOUDY    54  50  87 N5        30.09R
LAREDO         NOT AVBL
$$

TXZ248>255-180500-
DEEP SOUTH TEXAS

CITY           SKY/WX    TMP DP  RH WIND       PRES   REMARKS
BROWNSVILLE    CLOUDY    72  68  87 S8        30.04R
PORT ISABEL    CLOUDY    71  67  87 S6        30.04R
*SOUTH PADRE   CLOUDY   N/A N/A N/A CALM      30.04R
HARLINGEN      CLOUDY    71  67  87 S6        30.03R
*HEBBRONVILLE  CLOUDY    68  65  89 CALM      30.06R
MCALLEN        CLOUDY    72  67  84 SE9       30.04R
*WESLACO       CLOUDY    71  65  82 S7        30.04R
FALFURRIAS     CLOUDY    71  65  81 SE6       30.03R
EDINBURG       CLOUDY    73  66  79 SE8       30.04S
*ZAPATA        CLOUDY    60  59  95 NW6       30.05R
$$

TXZ213>215-236>238-242>244-246-247-251-254-255-180500-
CMAN STATIONS

STATION/POSITION TIME  TEMP    WIND        PRES    WAVE
                       AIR SEA DIR/SP/G            HT/PER
                 (UTC) (F)     (DEG/KT/KT) (MB)    (FT/S)
SABINE PASS      0400   61 62  120/ 10/ 12 1020.2
SEA RIM ST PARK  0400   61     110/  9/ 11 1021.0
NORTH JETTY/GLS  0400   64 62  140/ 18/ 19   N/A
EAGLE POINT      0400   63 62  120/ 11/ 13 1019.2
MORGANS POINT    0400   59      10/  3/  5 1019.7
MISSION/ARANSAS  0300   67     150/  7     1019.0
PORT O`CONNOR    0400          100/  5/  6   N/A
PORT ARANSAS     0400   68 64  120/  7/  7 1018.0
MALAQUITE BEACH  0400   67 68  120/  9/ 10 1016.8
BAFFIN BAY       0400   68     130/  8/  9 1017.1
PORT ISABEL      0400   72 69  160/ 10/ 11 1017.4
$$

GMZ080-GMZ150>470-180500-
OFFSHORE BUOY REPORTS

STATION/POSITION TIME  TEMP    WIND        PRES    WAVE
                       AIR SEA DIR/SP/G            HT/PER
                 (UTC) (F)     (DEG/KT/KT) (MB)    (FT/S)
20 E GALVESTON   0400   65 65  110/ 12/ 14 1019.0    4/ 5
90 E PT ARANSAS  0400   72 72  150/ 16/ 17 1018.5    5/ 5
35 NE PT MANSFLD 0400   72 72  170/ 12/ 14 1017.4    4/ 6
200 E PT ISABEL  0400   74 73  150/ 14/ 16 1019.2    3/ 5
$$